Satellite-Ground Cal/Val Site Overpasses Predictions

Prediction of Satellite NPP Overpassing Cal/Val Site: Antarctic Dome C

Ground Cal/Val Site Location: Latitude: -75.10, Longitude: 123.35; Satellite-Ground Site NADIR distance within 100 km.

Table of predicted overpasses for the next 14.0 days since TLE Epoch: 7/3/2012
Interval Starting Time Ending Time Minimum Distance Time Minimum Distance (km)
1 07/04/2012 15:05:41 07/04/2012 15:05:51 07/04/2012 15:05:46 92.94
2 07/05/2012 14:46:43 07/05/2012 14:47:11 07/05/2012 14:46:57 18.12
3 07/07/2012 07:29:32 07/07/2012 07:30:01 07/07/2012 07:29:47 1.21
4 07/10/2012 14:53:00 07/10/2012 14:53:28 07/10/2012 14:53:14 18.53
5 07/11/2012 14:34:19 07/11/2012 14:34:32 07/11/2012 14:34:25 88.35
6 07/12/2012 07:35:50 07/12/2012 07:36:17 07/12/2012 07:36:03 36.25
7 07/13/2012 07:17:05 07/13/2012 07:17:24 07/13/2012 07:17:14 73.96
8 07/15/2012 14:59:19 07/15/2012 14:59:44 07/15/2012 14:59:32 55.91
9 07/16/2012 14:40:29 07/16/2012 14:40:54 07/16/2012 14:40:42 53.26
